Probability
19 35 77 81 74 81 81 87 90 94 90 87 90 97 87 94 97 94 94 94 94 94 87 90 97 90 84 84 81 84 84 87 90 90 71 68 74 77 81 81 61 55 77
26 52 84 90 84 87 84 84 90 94 94 94 97 94 97 97 100 94 94 97 87 87 84 90 94 94 87 87 87 94 90 90 90 87 84 74 77 77 74 71 52 55 68
42 52 71 90 87 87 90 90 87 90 90 94 97 100 97 97 97 90 94 97 94 94 97 100 90 90 87 90 90 94 90 87 84 87 77 52 68 71 71 74 61 71 71
39 42 65 84 87 87 87 87 94 87 87 90 94 97 97 97 97 97 97 90 90 90 97 97 94 97 94 87 94 94 94 94 81 77 29 42 42 74 71 71 65 71 68
32 42 71 87 87 94 94 94 94 90 94 94 94 94 97 97 97 94 90 90 94 87 87 94 94 90 84 87 94 97 90 84 77 32 23 35 52 74 77 71 68 65 68
29 52 77 87 87 90 94 94 94 94 90 90 97 97 94 94 97 100 90 94 90 90 90 90 87 84 87 87 90 90 87 71 39 16 26 42 55 74 77 68 71 61 68
32 58 81 90 90 90 90 90 90 90 90 87 87 87 90 90 97 94 87 90 90 87 87 84 84 81 84 84 90 81 77 68 6 13 29 48 68 81 81 74 71 71 68
45 58 77 90 90 94 94 90 90 90 87 87 90 90 87 87 87 87 84 84 81 81 81 74 77 81 77 74 77 81 74 52 19 13 26 55 74 87 77 77 77 77 71
55 65 65 77 77 90 90 90 90 90 90 90 90 90 90 90 94 90 84 81 74 74 77 81 74 68 61 74 65 71 68 55 3 16 23 61 74 81 77 77 81 74 68
55 52 55 68 71 74 77 87 90 90 90 90 90 90 90 90 90 84 87 84 77 71 74 74 71 58 65 74 71 71 74 42 3 10 32 65 74 74 74 77 71 71 71
55 52 48 61 65 68 71 74 77 87 90 87 87 94 84 42 55 77 84 81 74 71 65 68 58 65 65 81 77 74 45 13 10 13 29 65 77 77 74 71 74 65 58
52 52 39 39 48 52 71 61 61 65 61 55 58 48 23 23 35 65 81 81 74 74 68 68 65 55 39 32 52 39 10 16 13 16 19 68 74 81 81 74 65 61 58
32 48 32 32 39 42 42 48 52 48 48 52 35 26 16 10 19 13 13 29 29 32 16 16 13 16 16 16 16 13 10 13 16 16 23 68 77 68 74 71 65 65 58
29 42 39 39 29 32 39 42 32 32 39 29 26 26 19 13 10 3 13 13 10 6 3 3 3 10 6 3 6 6 3 10 10 13 19 74 77 71 58 65 61 61 65
19 29 32 35 29 23 19 29 42 29 26 32 32 26 19 16 3 0 0 3 0 0 3 0 6 10 6 6 6 10 6 6 6 10 19 65 81 77 61 58 52 48 55
23 16 23 42 32 26 16 10 16 26 19 23 19 16 19 10 3 3 0 0 0 0 0 0 0 3 0 0 6 6 6 3 10 6 13 35 71 77 74 55 58 42 45
19 23 19 29 23 16 19 13 19 23 13 19 19 16 16 10 0 0 0 0 0 3 0 0 0 0 0 0 3 0 3 0 10 10 10 26 35 61 68 61 55 52 52
23 19 23 42 16 13 16 16 16 19 16 16 6 13 16 6 3 0 0 3 0 3 0 0 3 0 0 0 0 0 0 0 0 10 10 13 23 23 45 52 52 65 55
23 32 29 35 29 19 16 16 19 19 23 16 10 10 19 16 10 0 0 0 0 0 0 0 3 0 0 0 0 0 0 0 3 10 10 10 6 6 10 29 58 68 58
23 16 16 26 29 23 19 23 16 23 23 26 19 13 19 13 16 3 6 0 3 0 0 0 0 0 0 0 0 0 0 0 3 3 0 6 6 6 6 6 23 35 58
23 19 19 26 23 19 23 29 23 19 19 19 19 19 16 13 10 6 6 6 3 3 0 0 0 0 0 0 0 0 0 0 0 3 0 0 3 6 6 6 10 13 16
23 19 23 26 26 26 26 23 19 23 19 19 16 19 19 13 6 6 6 6 3 3 0 0 0 0 0 0 0 0 0 0 0 0 3 0 0 0 3 3 3 3 3
32 26 29 29 29 23 23 29 35 26 23 26 23 16 19 19 16 6 6 6 6 6 3 0 0 0 0 0 0 0 0 0 0 0 0 3 0 0 0 3 0 3 3
32 35 29 35 35 29 39 35 45 42 35 32 13 13 16 16 16 13 10 10 10 6 3 3 0 0 0 0 0 0 0 0 0 0 0 0 0 0 0 0 0 0 3
39 35 29 39 32 35 39 32 32 42 29 23 16 19 13 13 13 16 10 6 3 3 3 0 0 0 0 0 0 0 0 0 0 0 0 0 0 0 0 3 0 0 0
45 55 45 32 39 35 35 32 29 29 29 23 19 16 16 13 16 10 10 3 3 3 3 3 0 0 0 0 0 0 0 0 0 0 0 0 0 0 0 0 3 0 0
Height
5878 5877 5877 5876 5876 5876 5875 5875 5876 5876 5877 5877 5878 5878 5879 5879 5880 5880 5880 5880 5881 5881 5881 5881 5882 5882 5883 5883 5883 5883 5884 5884 5884 5884 5885 5885 5885 5885 5885 5885 5885 5886 5886
5880 5879 5879 5878 5878 5878 5877 5878 5878 5878 5878 5879 5879 5880 5881 5881 5881 5882 5882 5882 5882 5882 5883 5883 5883 5884 5884 5884 5885 5885 5885 5885 5885 5886 5886 5886 5886 5886 5886 5886 5887 5887 5887
5882 5881 5881 5881 5880 5880 5880 5880 5880 5880 5880 5880 5881 5881 5882 5882 5882 5883 5883 5883 5884 5884 5884 5884 5885 5885 5885 5886 5886 5886 5886 5887 5887 5887 5887 5887 5887 5887 5887 5888 5888 5888 5888
5884 5884 5883 5882 5882 5882 5882 5882 5882 5882 5882 5882 5883 5883 5883 5883 5883 5884 5884 5885 5885 5885 5886 5886 5886 5887 5887 5887 5887 5888 5888 5888 5888 5888 5888 5888 5889 5889 5889 5889 5889 5889 5889
5887 5886 5885 5884 5884 5884 5883 5883 5883 5883 5883 5884 5884 5884 5884 5884 5885 5885 5886 5886 5886 5887 5887 5887 5887 5888 5888 5888 5889 5889 5889 5889 5889 5890 5890 5890 5890 5890 5890 5890 5890 5890 5891
5888 5887 5887 5886 5886 5885 5885 5885 5885 5885 5885 5885 5885 5886 5885 5885 5886 5886 5887 5887 5887 5888 5888 5889 5889 5889 5890 5890 5890 5890 5890 5891 5891 5891 5891 5891 5891 5891 5891 5891 5891 5892 5892
5890 5889 5889 5888 5887 5887 5887 5886 5886 5886 5886 5886 5887 5887 5887 5887 5887 5888 5888 5889 5889 5889 5890 5890 5890 5890 5891 5891 5891 5892 5892 5892 5892 5892 5892 5892 5892 5892 5892 5892 5892 5893 5893
5892 5891 5890 5890 5889 5889 5888 5888 5888 5888 5888 5888 5888 5889 5889 5889 5889 5890 5890 5890 5890 5890 5890 5890 5891 5892 5892 5892 5893 5893 5893 5893 5893 5893 5893 5893 5894 5894 5893 5893 5893 5894 5894
5894 5893 5892 5892 5891 5891 5890 5890 5890 5890 5890 5889 5890 5890 5890 5890 5891 5891 5891 5891 5891 5891 5892 5892 5893 5893 5893 5894 5894 5894 5894 5894 5894 5894 5894 5895 5895 5895 5894 5895 5895 5895 5895
5896 5895 5894 5893 5893 5893 5892 5892 5892 5891 5891 5891 5891 5891 5891 5891 5892 5892 5892 5892 5892 5893 5893 5893 5894 5894 5894 5895 5895 5895 5895 5895 5895 5895 5895 5895 5896 5895 5896 5896 5896 5896 5896
5898 5897 5896 5896 5895 5895 5894 5894 5893 5893 5893 5893 5893 5893 5892 5893 5893 5893 5893 5893 5893 5894 5894 5895 5895 5895 5896 5896 5896 5896 5896 5896 5896 5896 5896 5896 5896 5896 5897 5897 5897 5897 5897
5900 5899 5899 5898 5897 5897 5896 5896 5895 5895 5895 5895 5895 5894 5894 5894 5894 5894 5894 5895 5895 5895 5896 5896 5896 5896 5897 5897 5897 5897 5897 5897 5897 5897 5897 5897 5897 5897 5897 5897 5898 5898 5898
5903 5902 5901 5900 5899 5899 5898 5898 5897 5897 5897 5896 5896 5896 5896 5896 5896 5896 5896 5896 5896 5897 5897 5897 5897 5897 5898 5898 5898 5898 5898 5898 5898 5898 5897 5898 5898 5898 5898 5898 5898 5898 5898
5905 5904 5903 5902 5901 5901 5900 5900 5899 5899 5898 5898 5898 5897 5897 5897 5897 5897 5897 5897 5898 5898 5898 5898 5898 5898 5898 5899 5899 5899 5899 5899 5899 5899 5898 5898 5898 5899 5899 5898 5899 5899 5899
5907 5906 5905 5904 5903 5903 5902 5901 5901 5900 5900 5899 5899 5898 5898 5898 5898 5898 5898 5898 5898 5899 5899 5899 5899 5899 5899 5899 5899 5899 5899 5899 5899 5899 5899 5899 5899 5899 5899 5899 5899 5899 5899
5909 5908 5907 5906 5905 5904 5904 5903 5902 5902 5901 5900 5899 5899 5899 5899 5899 5899 5899 5899 5899 5899 5899 5899 5899 5899 5900 5900 5900 5900 5900 5900 5899 5899 5899 5899 5899 5899 5899 5899 5899 5899 5898
5910 5909 5908 5908 5906 5905 5905 5904 5903 5903 5902 5901 5900 5900 5899 5899 5899 5899 5899 5899 5899 5899 5900 5900 5899 5899 5899 5900 5900 5900 5900 5900 5900 5899 5899 5899 5899 5899 5899 5899 5898 5898 5898
5911 5910 5910 5909 5908 5907 5906 5905 5904 5904 5903 5902 5901 5901 5900 5900 5900 5899 5899 5899 5899 5899 5900 5900 5899 5899 5899 5899 5899 5899 5899 5899 5899 5899 5899 5899 5899 5899 5899 5898 5898 5898 5898
5912 5911 5910 5910 5909 5908 5907 5906 5905 5904 5903 5903 5902 5901 5901 5900 5900 5899 5899 5899 5899 5899 5899 5899 5899 5899 5899 5899 5899 5899 5899 5899 5899 5899 5899 5899 5898 5898 5898 5898 5897 5897 5897
5913 5912 5911 5910 5909 5909 5908 5907 5906 5905 5904 5903 5902 5901 5901 5900 5900 5899 5899 5899 5898 5899 5899 5899 5899 5899 5899 5899 5898 5898 5898 5898 5898 5898 5898 5897 5897 5897 5897 5896 5896 5896 5895
5914 5912 5912 5911 5910 5909 5908 5907 5906 5905 5904 5903 5902 5901 5901 5900 5900 5899 5899 5898 5898 5898 5898 5898 5898 5898 5898 5898 5898 5898 5898 5897 5897 5897 5896 5896 5896 5896 5895 5895 5894 5894 5894
5913 5912 5912 5911 5910 5909 5908 5907 5906 5905 5904 5903 5902 5901 5901 5900 5899 5899 5898 5898 5897 5897 5897 5897 5897 5897 5897 5897 5897 5897 5897 5897 5896 5895 5895 5895 5894 5894 5893 5893 5892 5892 5891
5914 5913 5912 5912 5911 5909 5909 5908 5907 5906 5904 5903 5902 5901 5900 5900 5899 5898 5897 5897 5897 5896 5896 5896 5896 5896 5896 5896 5896 5896 5895 5895 5895 5894 5893 5893 5892 5892 5891 5890 5890 5889 5889
5914 5913 5913 5912 5911 5909 5909 5908 5907 5906 5904 5903 5901 5900 5900 5899 5898 5897 5897 5896 5896 5895 5895 5895 5895 5895 5895 5895 5894 5894 5894 5893 5893 5892 5892 5891 5890 5889 5889 5888 5887 5887 5886
5914 5913 5912 5911 5910 5909 5908 5907 5906 5905 5904 5902 5901 5900 5899 5898 5897 5896 5895 5895 5895 5894 5894 5894 5893 5893 5893 5893 5893 5892 5892 5891 5890 5890 5889 5889 5888 5886 5886 5885 5884 5884 5883
5913 5913 5912 5910 5909 5908 5907 5906 5905 5904 5903 5901 5900 5899 5898 5897 5895 5895 5894 5893 5893 5893 5892 5892 5892 5891 5891 5891 5891 5890 5890 5889 5888 5887 5886 5886 5885 5884 5883 5882 5881 5880 5879
Wind_Speed
13 13 13 13 13 13 13 13 13 13 12 12 11 10 9 9 8 8 9 9 8 8 8 8 8 9 9 9 9 9 9 9 8 8 8 8 8 8 8 8 7 7 7
12 12 12 12 12 12 13 13 13 12 12 11 11 10 9 9 9 9 9 8 8 8 8 7 8 9 9 9 9 9 8 8 8 8 8 8 8 8 8 8 7 7 8
11 11 11 12 12 12 12 12 12 11 11 11 10 9 9 8 8 8 8 7 7 8 8 8 8 8 9 9 8 8 8 7 7 7 8 8 8 8 8 8 8 8 7
11 11 11 11 11 12 12 11 11 11 10 10 9 9 8 8 8 8 7 7 7 8 7 7 8 8 9 9 8 8 7 7 7 8 8 8 8 8 8 8 8 8 8
11 11 11 11 11 11 11 10 10 10 9 9 9 8 8 8 8 7 7 7 7 7 7 7 7 8 8 8 8 8 8 7 7 8 8 8 8 8 8 7 8 8 8
11 11 12 12 11 10 10 10 10 9 8 9 9 8 8 7 7 7 7 7 8 7 6 6 6 7 7 7 8 8 8 8 8 8 8 8 8 7 7 7 7 7 7
12 13 12 12 12 11 10 10 10 9 8 8 8 7 7 7 8 8 7 7 6 6 6 6 6 6 6 7 7 8 8 8 8 7 7 7 7 7 7 7 7 7 7
12 13 13 12 12 11 11 10 10 9 9 8 8 7 7 7 6 6 6 6 5 6 6 6 6 6 7 7 7 7 8 8 7 7 7 6 6 6 7 7 7 7 6
13 13 13 13 12 12 11 11 10 9 9 8 8 7 7 6 6 6 7 6 6 6 6 6 6 7 6 7 6 7 7 7 7 6 6 6 6 6 6 6 7 7 7
13 13 13 12 12 11 11 11 10 10 9 8 8 7 8 8 7 7 7 7 7 7 6 7 7 7 7 6 6 6 7 6 6 6 6 6 6 6 6 6 6 6 6
13 12 12 12 12 11 11 11 11 10 10 9 8 8 8 9 8 8 7 7 7 7 7 7 7 7 6 6 6 6 6 5 5 6 6 6 6 5 5 5 5 5 5
13 12 12 12 12 11 11 11 10 10 10 9 8 8 8 8 8 8 7 7 7 7 7 7 7 7 6 6 6 5 5 5 5 5 5 5 5 5 5 5 4 4 4
12 12 11 11 11 10 10 10 10 10 10 9 9 8 7 7 7 7 7 6 6 6 6 6 5 5 5 5 5 5 5 4 4 4 4 4 4 4 4 4 4 3 3
12 11 11 10 10 10 9 9 9 9 8 8 8 7 7 6 6 6 5 5 5 5 5 5 4 4 4 4 4 4 4 4 4 3 3 3 3 2 2 3 3 3 3
12 11 10 10 9 9 9 9 9 8 8 8 7 6 5 5 4 4 4 4 4 4 4 4 3 3 3 3 3 3 3 3 2 2 2 2 2 1 1 1 1 1 2
11 11 10 9 9 9 9 9 9 8 7 7 7 6 4 4 3 3 2 2 2 3 3 3 2 2 2 3 3 2 2 2 2 2 2 1 1 1 1 1 1 1 2
10 10 9 9 8 8 8 8 8 7 7 6 6 5 4 3 3 2 1 1 1 2 2 2 1 1 1 1 1 1 1 1 1 1 1 1 1 2 2 2 3 3 3
9 9 8 8 8 7 7 7 7 6 6 6 5 5 4 3 2 2 1 1 1 1 1 1 1 1 0 1 1 2 2 2 2 3 3 3 3 3 3 4 4 5 5
8 8 8 8 7 7 7 7 6 6 5 5 5 4 3 2 2 2 1 1 0 1 1 1 1 1 1 2 2 2 2 2 3 4 4 5 5 5 5 5 5 5 6
7 6 7 7 7 6 6 6 6 6 6 5 4 4 3 3 2 2 1 1 1 2 3 3 3 2 2 3 3 3 3 3 4 5 5 5 6 6 7 7 7 7 7
6 6 6 7 6 6 6 6 6 6 6 5 4 3 3 3 3 2 1 1 2 3 3 4 4 4 4 4 4 4 4 5 5 5 5 5 6 7 8 8 8 8 9
7 5 6 6 6 6 6 6 7 6 6 5 4 4 4 4 4 4 3 3 3 3 4 4 5 5 5 5 5 5 5 6 6 6 7 7 8 9 9 9 10 10 10
6 6 6 5 5 6 6 6 7 6 6 6 5 4 4 5 5 5 5 4 4 3 4 5 5 6 6 7 6 6 7 7 7 7 8 9 10 10 10 10 11 11 12
6 6 6 5 5 6 6 6 7 7 7 6 5 5 5 6 6 6 6 5 5 5 6 6 6 7 7 7 8 8 9 9 10 10 10 10 11 11 12 12 12 12 13
6 6 6 6 6 6 7 7 7 8 7 7 6 7 7 7 6 6 7 6 6 6 7 7 7 7 8 9 9 10 10 10 11 11 11 12 12 12 12 13 14 14 15
7 7 7 7 7 7 8 8 8 8 8 7 7 7 8 8 8 7 8 8 7 7 8 8 8 8 9 10 10 10 10 11 11 11 12 12 13 13 13 13 14 14 15
Wind_Direction
70 70 74 74 76 77 77 78 78 77 81 87 89 88 85 82 81 84 86 86 87 88 88 88 85 91 90 89 88 91 89 91 92 88 89 92 95 95 95 94 93 94 93
66 65 70 71 73 73 75 76 76 78 81 84 87 87 85 82 83 83 82 82 82 85 86 88 89 89 88 89 91 92 92 94 92 88 91 92 94 94 93 93 92 93 94
64 65 68 70 71 73 74 75 75 76 78 82 82 83 82 82 83 82 81 81 82 83 85 88 90 87 87 91 94 94 96 94 88 87 87 88 91 94 92 91 92 92 93
67 67 66 67 70 72 74 74 74 75 76 78 79 78 78 83 85 84 83 83 85 85 87 89 90 89 88 89 90 92 91 89 87 85 85 90 92 93 92 91 94 95 96
71 68 66 67 69 71 71 73 74 76 75 74 75 75 77 85 88 86 84 87 92 92 96 91 90 94 92 89 89 89 87 85 87 86 86 90 93 93 92 93 96 95 97
69 68 69 69 68 70 72 73 74 75 75 75 75 74 75 82 92 89 88 91 97 96 92 91 91 97 97 90 88 87 86 87 88 87 86 88 91 91 91 94 94 95 97
66 67 67 68 67 68 72 73 75 75 73 74 76 73 73 85 91 83 85 92 91 91 96 96 97 99 96 91 89 89 88 89 86 85 86 86 89 89 90 90 90 94 96
63 62 65 65 65 66 69 73 73 72 70 71 74 77 78 83 87 81 85 91 90 97 102 100 105 105 97 92 93 93 87 85 82 84 86 84 87 90 89 87 90 93 94
59 59 61 64 65 66 69 69 69 70 71 72 73 80 80 81 80 83 85 90 96 101 104 100 97 97 94 92 93 92 88 85 83 84 84 84 88 90 88 85 90 92 89
59 59 60 63 66 67 68 67 65 67 67 69 75 85 81 84 81 80 81 86 91 91 93 96 95 97 95 93 93 92 90 86 83 85 82 84 88 89 90 87 86 87 90
58 60 62 64 67 67 67 66 66 66 64 67 75 76 73 78 81 77 81 84 84 85 88 93 93 99 94 92 94 90 86 85 83 84 83 87 88 86 85 82 82 86 89
57 60 63 65 66 66 65 65 65 65 63 64 69 72 73 77 76 75 80 83 84 85 90 90 90 97 94 92 91 90 87 86 85 85 84 91 95 91 84 81 82 81 85
55 59 62 63 63 63 64 63 63 64 62 61 62 66 72 76 78 78 77 87 89 87 88 92 91 93 95 94 91 93 89 87 88 83 84 89 97 98 87 80 77 75 74
56 59 61 62 60 60 60 60 61 63 61 57 58 62 68 72 73 74 72 80 84 87 90 94 88 89 93 92 90 90 85 83 91 86 81 84 97 102 89 76 75 71 63
55 57 60 62 59 59 58 58 58 57 54 53 56 62 69 72 76 73 69 80 82 82 85 89 90 81 87 80 79 82 80 82 83 78 71 78 82 83 77 62 64 53 32
52 55 57 58 58 58 58 56 56 53 51 50 52 60 69 70 66 68 73 91 92 84 79 83 89 85 84 77 65 65 67 65 65 56 65 66 45 23 347 339 342 331 329
46 50 51 51 52 53 53 53 51 47 45 46 49 51 54 60 62 58 59 92 119 108 90 71 65 97 98 83 46 22 8 344 343 315 326 328 330 330 312 296 301 301 301
39 41 41 42 42 43 43 42 39 36 37 39 43 43 42 52 55 53 46 83 121 154 108 51 43 42 354 342 342 331 320 299 286 280 281 283 293 301 300 297 298 296 296
31 33 34 33 33 31 26 22 22 23 26 28 27 24 21 28 33 27 11 65 178 228 260 281 290 316 328 320 316 309 298 292 283 283 284 287 288 292 294 294 297 292 290
25 29 27 26 25 21 15 13 13 12 10 7 7 5 0 5 4 356 333 276 270 271 273 276 271 267 274 280 282 283 287 297 292 289 290 292 288 293 295 291 293 290 283
11 15 21 24 23 17 10 9 11 8 1 354 356 351 348 341 340 334 331 279 264 267 266 265 268 269 272 273 274 279 289 294 288 289 291 291 288 290 291 289 287 286 282
360 4 16 23 24 13 9 6 8 6 1 351 341 332 330 325 325 327 312 311 290 271 262 268 272 272 275 272 271 275 281 290 286 287 287 286 286 286 287 285 284 283 282
7 8 8 13 11 5 3 4 2 0 1 352 340 332 323 316 313 312 308 299 290 276 271 283 281 275 274 271 268 271 278 283 287 289 288 286 286 286 286 283 285 285 283
349 350 354 356 356 355 354 351 353 355 354 352 340 324 314 313 309 302 302 304 295 284 279 283 279 276 275 276 273 276 280 282 282 285 288 288 288 285 287 287 288 288 285
326 329 335 338 347 349 347 341 338 341 340 338 332 320 316 307 299 293 289 295 298 291 283 280 278 275 275 277 277 280 283 286 283 282 286 292 291 288 287 286 286 288 286
315 318 320 325 330 334 336 338 332 331 329 323 317 314 313 310 304 295 287 282 281 285 284 281 281 277 276 280 282 283 285 289 289 286 288 289 289 289 290 291 289 288 287